#timestamp,LO_Frequency,Hit,StdDev 
1553706015.6,286047002.3,N
1553706035.5,286047002.3,N
1553706055.3,286047002.2,N
1553706075.1,286047001.8,N
1553706095.9,286046999.7,N
1553706115.7,286047000.1,N
1553706135.6,286047002.1,N
1553706155.4,286046998.1,N
1553706175.2,286046998.5,N
1553706195.1,286047001.0,N
1553706196.0,286047001.0,N
1553706215.8,286046999.8,N
1553706235.6,286047000.8,N
1553706255.5,286046999.8,N
1553706275.3,286046998.6,N
1553706295.2,286046998.1,N
1553706315.9,286047000.7,N
1553706335.7,286046999.8,N
1553706355.6,286047000.0,N
1553706375.4,286047002.3,N
1553706395.2,286047002.7,N
1553706415.1,286046999.8,N
1553706416.0,286046999.8,N
1553706435.8,286047002.6,N
1553706455.7,286047002.3,N
1553706475.5,286047002.0,N
1553706495.3,286047001.8,N
1553706515.2,286047004.3,N
1553706535.0,286047004.4,N
1553706535.9,286047004.4,N
1553706555.7,286047002.1,N
1553706575.6,286047001.6,N
1553706595.4,286047002.2,N
1553706615.3,286047002.0,N
1553706635.1,286047002.2,N
1553706655.8,286047003.6,N
1553706675.7,286047003.6,N
1553706695.5,286047002.3,N
1553706715.4,286047002.3,N
1553706735.2,286047004.0,N
1553706755.0,286047001.7,N
1553706755.9,286047001.7,N
1553706775.8,286046999.9,N
1553706795.6,286047001.1,N
1553706815.5,286047000.2,N
1553706835.3,286047002.0,N
1553706855.1,286047002.3,N
1553706875.9,286047001.4,N
1553706895.7,286047004.4,Y
1553706915.5,286046999.7,P
1553706935.4,286047000.6,N
1553706955.2,286047002.4,N
1553706975.1,286047001.9,N
1553706976.0,286047001.9,N
1553706995.8,286047003.5,Y
1553707015.6,286047002.2,P
1553707035.5,286047001.8,P
1553707055.3,286047002.5,P
1553707075.2,286047000.5,N
1553707095.9,286047000.2,N
1553707115.7,286046998.2,N
1553707135.6,286046998.8,N
1553707155.4,286046998.8,N
1553707175.2,286047000.6,N
1553707195.1,286047001.2,N
1553707196.0,286047001.2,N
1553707215.8,286047000.0,N
1553707235.7,286047002.8,N
1553707255.5,286046999.4,N
1553707275.3,286046996.8,N
1553707295.2,286046996.8,N
1553707315.9,286046998.9,N
1553707335.7,286046999.2,N
1553707355.6,286046999.3,N
1553707375.4,286046998.0,N
1553707395.2,286046997.3,N
1553707415.1,286046997.1,N
1553707416.0,286046997.1,N
1553707435.8,286046999.6,N
1553707455.7,286046998.7,N
1553707475.5,286046999.5,N
1553707495.3,286046999.0,N
1553707515.2,286046998.6,N
1553707535.0,286046999.6,N
1553707535.9,286046999.6,N
1553707555.7,286046999.4,N
1553707575.6,286046998.9,N
1553707595.4,286046996.9,N
1553707615.3,286046998.0,N
1553707635.1,286046994.9,Y
1553707655.8,286046997.0,P
1553707675.7,286046999.3,N
1553707695.5,286047001.2,N
1553707715.3,286046999.8,N
1553707735.2,286046999.8,N
1553707755.0,286047000.4,N
1553707755.9,286047000.4,N
1553707775.8,286047001.8,N
1553707795.6,286047002.0,N
1553707815.4,286047001.5,N
1553707835.3,286047004.0,N
1553707855.1,286047001.4,N
1553707875.9,286047003.4,N
1553707895.7,286047004.2,N
1553707915.5,286047002.8,N
1553707935.4,286047001.0,N
1553707955.2,286047000.7,N
1553707975.0,286047002.7,N
1553707975.9,286047002.7,N
1553707995.8,286046998.5,N
1553708015.6,286047001.2,N
1553708035.5,286046998.6,N
1553708055.3,286046998.5,N
1553708075.1,286046998.2,N
1553708095.9,286046998.7,N
1553708115.7,286046998.5,N
1553708135.6,286046998.6,N
1553708155.4,286046999.6,N
1553708175.2,286046999.2,N
1553708195.1,286046996.6,N
1553708196.0,286046996.6,N
1553708215.8,286046999.0,N
1553708235.6,286046998.2,N
1553708255.5,286047000.9,N
1553708275.3,286047000.7,N
1553708295.2,286047001.1,N
1553708315.9,286047001.0,N
1553708335.7,286047000.3,N
1553708355.6,286046999.3,N
1553708375.4,286046999.6,N
1553708395.3,286046996.5,N
1553708415.1,286046999.0,N
1553708416.0,286046999.0,N
1553708435.8,286046999.6,N
1553708455.7,286046999.4,N
1553708475.5,286046999.1,N
1553708495.3,286046998.8,N
1553708515.2,286046998.8,N
1553708535.0,286046999.2,N
1553708535.9,286046999.2,N
1553708555.8,286046997.1,N
1553708575.6,286046995.3,Y
1553708595.4,286046997.2,P
1553708615.3,286046995.8,P
1553708635.1,286046996.4,N
1553708655.9,286046995.2,Y
1553708675.7,286047000.5,P
1553708695.5,286047002.6,N
1553708715.4,286047000.0,N
1553708735.2,286046998.5,N
1553708755.0,286046999.9,N
1553708755.9,286046999.9,N
1553708775.8,286046999.7,N
1553708795.6,286047001.8,N
1553708815.5,286047002.8,N
1553708835.3,286047001.0,N
1553708855.1,286046998.3,N
1553708875.9,286046996.5,N
1553708895.7,286046998.7,N
1553708915.5,286046999.1,N
1553708935.4,286046999.3,N
1553708955.2,286046998.4,N
1553708975.1,286046996.9,N
1553708976.0,286046996.9,N
1553708995.8,286046997.1,N
1553709015.6,286046997.1,N
1553709035.5,286046997.0,N
1553709055.3,286046998.9,N
1553709075.2,286046998.7,N
1553709095.9,286047000.0,N
1553709115.7,286047000.6,N
1553709135.6,286047000.6,N
1553709155.4,286047000.6,N
1553709175.2,286046998.7,N
1553709195.1,286047001.0,N
1553709196.0,286047001.0,N
1553709245.9,286046996.5,E
1553709255.8,286046998.5,N
1553709275.6,286047000.8,P
1553709295.4,286046999.9,N
1553709315.3,286047002.5,N
1553709335.1,286047001.9,N
1553709355.9,286047001.0,N
1553709375.7,286046998.6,N
1553709395.5,286046999.8,N
1553709415.4,286046999.7,N
1553709435.2,286046998.1,N
1553709455.0,286046998.3,N
1553709456.0,286046998.3,N
1553709475.8,286047000.7,N
1553709495.6,286046999.8,N
1553709515.5,286047000.5,N
1553709535.3,286046999.1,N
1553709555.1,286047000.7,N
1553709575.9,286047000.0,N
1553709595.7,286047000.0,N
